Saint Bonnet de Bellac- Haute Vienne - France
Donnes mto: mardi, 13/12/2011
Date Horaire Temp. E. Hum. E. P.atmo. Pluie Vent Direction Direction Ensoleilleme Solaire P. de rose Temp au vent Rafales
13/12/2011 00:00 7,7 C 87 % 1013,2 hPa 0,0 mm 10,8 km/h (2 Bft) SO 225 0 min 0 W/m 5,7 C 5,7 C 21,6 km/h (4 Bft)
13/12/2011 00:05 7,7 C 87 % 1013,3 hPa 0,0 mm 5,8 km/h (2 Bft) S-SO 202 0 min 0 W/m 5,7 C 6,9 C 8,6 km/h (2 Bft)
13/12/2011 00:10 7,7 C 87 % 1013,4 hPa 0,0 mm 9,0 km/h (2 Bft) SO 225 0 min 0 W/m 5,7 C 6,1 C 11,5 km/h (2 Bft)
13/12/2011 00:15 7,7 C 87 % 1013,3 hPa 0,0 mm 10,8 km/h (2 Bft) E-SE 112 0 min 0 W/m 5,7 C 5,7 C 19,4 km/h (3 Bft)
13/12/2011 00:20 7,7 C 87 % 1013,2 hPa 0,0 mm 11,2 km/h (2 Bft) S-SO 202 0 min 0 W/m 5,7 C 5,7 C 18,0 km/h (3 Bft)
13/12/2011 00:25 7,7 C 87 % 1013,1 hPa 0,0 mm 10,8 km/h (2 Bft) S 180 0 min 0 W/m 5,7 C 5,7 C 19,4 km/h (3 Bft)
13/12/2011 00:30 7,7 C 87 % 1013,0 hPa 0,0 mm 9,4 km/h (2 Bft) S 180 0 min 0 W/m 5,7 C 6,0 C 14,4 km/h (3 Bft)
13/12/2011 00:35 7,6 C 87 % 1012,9 hPa 0,0 mm 13,3 km/h (3 Bft) S 180 0 min 0 W/m 5,6 C 5,2 C 20,5 km/h (4 Bft)
13/12/2011 00:40 7,7 C 87 % 1012,8 hPa 0,0 mm 14,8 km/h (3 Bft) S-SO 202 0 min 0 W/m 5,7 C 5,1 C 14,8 km/h (3 Bft)
13/12/2011 00:45 7,7 C 87 % 1012,8 hPa 0,0 mm 12,2 km/h (2 Bft) S-SO 202 0 min 0 W/m 5,7 C 5,5 C 17,6 km/h (3 Bft)
13/12/2011 00:50 7,7 C 87 % 1012,8 hPa 0,0 mm 11,2 km/h (2 Bft) SO 225 0 min 0 W/m 5,7 C 5,7 C 11,2 km/h (2 Bft)
13/12/2011 00:55 7,7 C 87 % 1012,7 hPa 0,0 mm 15,8 km/h (3 Bft) SO 225 0 min 0 W/m 5,7 C 5,0 C 21,6 km/h (4 Bft)
13/12/2011 01:00 7,7 C 87 % 1012,6 hPa 0,0 mm 11,2 km/h (2 Bft) S 180 0 min 0 W/m 5,7 C 5,7 C 11,2 km/h (2 Bft)
13/12/2011 01:05 7,7 C 87 % 1012,6 hPa 0,0 mm 7,9 km/h (2 Bft) S-SO 202 0 min 0 W/m 5,7 C 6,3 C 7,9 km/h (2 Bft)
13/12/2011 01:10 7,8 C 87 % 1012,5 hPa 0,0 mm 14,4 km/h (3 Bft) S 180 0 min 0 W/m 5,8 C 5,3 C 23,8 km/h (4 Bft)
13/12/2011 01:15 7,8 C 87 % 1012,3 hPa 0,0 mm 11,9 km/h (2 Bft) S-SO 202 0 min 0 W/m 5,8 C 5,7 C 14,4 km/h (3 Bft)
13/12/2011 01:20 7,8 C 88 % 1012,3 hPa 0,0 mm 15,1 km/h (3 Bft) S-SE 157 0 min 0 W/m 5,9 C 5,2 C 21,6 km/h (4 Bft)
13/12/2011 01:25 7,8 C 88 % 1012,3 hPa 0,0 mm 9,0 km/h (2 Bft) S-SE 157 0 min 0 W/m 5,9 C 6,2 C 9,0 km/h (2 Bft)
13/12/2011 01:30 7,9 C 88 % 1012,3 hPa 0,0 mm 11,2 km/h (2 Bft) S-SO 202 0 min 0 W/m 6,0 C 5,9 C 15,1 km/h (3 Bft)
13/12/2011 01:35 8,0 C 87 % 1012,1 hPa 0,0 mm 11,2 km/h (2 Bft) S-SO 202 0 min 0 W/m 6,0 C 6,0 C 11,5 km/h (2 Bft)
13/12/2011 01:40 8,0 C 87 % 1011,9 hPa 0,0 mm 9,4 km/h (2 Bft) S-SO 202 0 min 0 W/m 6,0 C 6,4 C 14,8 km/h (3 Bft)
13/12/2011 01:45 8,0 C 87 % 1011,7 hPa 0,0 mm 9,0 km/h (2 Bft) SO 225 0 min 0 W/m 6,0 C 6,4 C 13,3 km/h (3 Bft)
13/12/2011 01:50 8,1 C 87 % 1011,5 hPa 0,0 mm 24,1 km/h (4 Bft) S-SO 202 0 min 0 W/m 6,1 C 4,6 C 28,1 km/h (5 Bft)
13/12/2011 01:55 8,1 C 87 % 1011,3 hPa 0,0 mm 18,7 km/h (3 Bft) SE 135 0 min 0 W/m 6,1 C 5,1 C 23,0 km/h (4 Bft)
13/12/2011 02:02 8,2 C 87 % 1011,3 hPa 0,0 mm 14,4 km/h (3 Bft) SO 225 0 min 0 W/m 6,2 C 5,8 C 20,5 km/h (4 Bft)
13/12/2011 02:05 8,3 C 87 % 1011,1 hPa 0,0 mm 12,6 km/h (3 Bft) SO 225 0 min 0 W/m 6,3 C 6,2 C 20,2 km/h (4 Bft)
13/12/2011 02:10 8,3 C 86 % 1011,0 hPa 0,0 mm 10,4 km/h (2 Bft) E-NE 67 0 min 0 W/m 6,1 C 6,5 C 13,3 km/h (3 Bft)
13/12/2011 02:15 8,3 C 86 % 1010,9 hPa 0,0 mm 17,6 km/h (3 Bft) S 180 0 min 0 W/m 6,1 C 5,5 C 17,6 km/h (3 Bft)
13/12/2011 02:20 8,3 C 86 % 1011,0 hPa 0,0 mm 10,8 km/h (2 Bft) S 180 0 min 0 W/m 6,1 C 6,5 C 15,5 km/h (3 Bft)
13/12/2011 02:25 8,3 C 86 % 1010,9 hPa 0,0 mm 12,2 km/h (2 Bft) SO 225 0 min 0 W/m 6,1 C 6,2 C 12,6 km/h (3 Bft)
13/12/2011 02:30 8,3 C 86 % 1010,9 hPa 0,0 mm 12,2 km/h (2 Bft) S-SO 202 0 min 0 W/m 6,1 C 6,2 C 14,4 km/h (3 Bft)
13/12/2011 02:35 8,3 C 87 % 1010,8 hPa 0,0 mm 10,4 km/h (2 Bft) SO 225 0 min 0 W/m 6,3 C 6,5 C 10,4 km/h (2 Bft)
13/12/2011 02:40 8,3 C 87 % 1010,6 hPa 0,0 mm 7,6 km/h (2 Bft) S-SO 202 0 min 0 W/m 6,3 C 7,1 C 7,6 km/h (2 Bft)
13/12/2011 02:45 8,3 C 87 % 1010,5 hPa 0,0 mm 14,8 km/h (3 Bft) SO 225 0 min 0 W/m 6,3 C 5,8 C 29,9 km/h (5 Bft)
13/12/2011 02:50 8,3 C 87 % 1010,2 hPa 0,0 mm 10,8 km/h (2 Bft) SO 225 0 min 0 W/m 6,3 C 6,5 C 16,2 km/h (3 Bft)
13/12/2011 02:55 8,3 C 87 % 1010,0 hPa 0,0 mm 9,0 km/h (2 Bft) S-SO 202 0 min 0 W/m 6,3 C 6,8 C 11,2 km/h (2 Bft)
13/12/2011 03:00 8,3 C 86 % 1010,0 hPa 0,0 mm 9,7 km/h (2 Bft) S 180 0 min 0 W/m 6,1 C 6,7 C 17,3 km/h (3 Bft)
13/12/2011 03:05 8,4 C 86 % 1009,9 hPa 0,0 mm 13,3 km/h (3 Bft) S 180 0 min 0 W/m 6,2 C 6,2 C 16,2 km/h (3 Bft)
13/12/2011 03:10 8,5 C 86 % 1009,9 hPa 0,0 mm 10,4 km/h (2 Bft) SO 225 0 min 0 W/m 6,3 C 6,8 C 20,5 km/h (4 Bft)
13/12/2011 03:15 8,6 C 86 % 1009,9 hPa 0,0 mm 15,5 km/h (3 Bft) S-SE 157 0 min 0 W/m 6,4 C 6,1 C 25,9 km/h (4 Bft)
13/12/2011 03:20 8,6 C 85 % 1010,1 hPa 0,0 mm 14,8 km/h (3 Bft) SO 225 0 min 0 W/m 6,2 C 6,2 C 20,9 km/h (4 Bft)
13/12/2011 03:25 8,7 C 85 % 1009,9 hPa 0,0 mm 10,1 km/h (2 Bft) SO 225 0 min 0 W/m 6,3 C 7,1 C 10,1 km/h (2 Bft)
13/12/2011 03:30 8,8 C 84 % 1009,9 hPa 0,0 mm 9,7 km/h (2 Bft) S-SO 202 0 min 0 W/m 6,2 C 7,3 C 15,5 km/h (3 Bft)
13/12/2011 03:35 8,8 C 84 % 1009,9 hPa 0,0 mm 10,8 km/h (2 Bft) S-SO 202 0 min 0 W/m 6,2 C 7,1 C 15,1 km/h (3 Bft)
13/12/2011 03:40 8,8 C 84 % 1009,8 hPa 0,0 mm 10,4 km/h (2 Bft) S-SO 202 0 min 0 W/m 6,2 C 7,1 C 13,7 km/h (3 Bft)
13/12/2011 03:45 8,8 C 84 % 1009,6 hPa 0,0 mm 13,3 km/h (3 Bft) S 180 0 min 0 W/m 6,2 C 6,7 C 29,2 km/h (5 Bft)
13/12/2011 03:50 8,8 C 84 % 1009,7 hPa 0,0 mm 9,4 km/h (2 Bft) SO 225 0 min 0 W/m 6,2 C 7,3 C 16,2 km/h (3 Bft)
13/12/2011 03:55 8,8 C 83 % 1009,6 hPa 0,0 mm 12,2 km/h (2 Bft) S-SO 202 0 min 0 W/m 6,1 C 6,8 C 23,8 km/h (4 Bft)
13/12/2011 04:00 8,8 C 83 % 1009,3 hPa 0,0 mm 6,1 km/h (2 Bft) S 180 0 min 0 W/m 6,1 C 8,1 C 10,1 km/h (2 Bft)
13/12/2011 04:05 8,9 C 82 % 1009,1 hPa 0,0 mm 19,4 km/h (3 Bft) SE 135 0 min 0 W/m 6,0 C 6,0 C 27,4 km/h (5 Bft)
13/12/2011 04:10 8,9 C 82 % 1008,9 hPa 0,0 mm 17,3 km/h (3 Bft) S-SE 157 0 min 0 W/m 6,0 C 6,3 C 28,4 km/h (5 Bft)
13/12/2011 04:15 8,9 C 81 % 1008,8 hPa 0,0 mm 17,6 km/h (3 Bft) S-SO 202 0 min 0 W/m 5,8 C 6,2 C 26,6 km/h (4 Bft)
13/12/2011 04:20 8,9 C 80 % 1009,2 hPa 0,0 mm 17,6 km/h (3 Bft) S-SO 202 0 min 0 W/m 5,6 C 6,2 C 26,3 km/h (4 Bft)
13/12/2011 04:25 9,0 C 80 % 1009,2 hPa 0,0 mm 16,9 km/h (3 Bft) S-SE 157 0 min 0 W/m 5,7 C 6,4 C 25,9 km/h (4 Bft)
13/12/2011 04:30 9,1 C 80 % 1009,3 hPa 0,0 mm 16,2 km/h (3 Bft) S-SO 202 0 min 0 W/m 5,8 C 6,7 C 26,6 km/h (4 Bft)
13/12/2011 04:35 9,1 C 80 % 1009,0 hPa 0,0 mm 15,1 km/h (3 Bft) S-SO 202 0 min 0 W/m 5,8 C 6,8 C 21,6 km/h (4 Bft)
13/12/2011 04:40 9,1 C 79 % 1009,1 hPa 0,0 mm 11,5 km/h (2 Bft) S 180 0 min 0 W/m 5,7 C 7,3 C 19,1 km/h (3 Bft)
13/12/2011 04:45 9,1 C 79 % 1009,0 hPa 0,0 mm 15,1 km/h (3 Bft) SO 225 0 min 0 W/m 5,7 C 6,8 C 15,1 km/h (3 Bft)
13/12/2011 04:50 9,1 C 79 % 1009,1 hPa 0,0 mm 9,7 km/h (2 Bft) S-SO 202 0 min 0 W/m 5,7 C 7,6 C 15,1 km/h (3 Bft)
13/12/2011 04:55 9,1 C 79 % 1009,3 hPa 0,0 mm 15,1 km/h (3 Bft) S-SO 202 0 min 0 W/m 5,7 C 6,8 C 17,6 km/h (3 Bft)
13/12/2011 05:00 9,1 C 79 % 1009,2 hPa 0,0 mm 11,2 km/h (2 Bft) SO 225 0 min 0 W/m 5,7 C 7,4 C 11,2 km/h (2 Bft)
13/12/2011 05:05 9,1 C 78 % 1009,2 hPa 0,0 mm 17,3 km/h (3 Bft) S-SO 202 0 min 0 W/m 5,5 C 6,5 C 29,2 km/h (5 Bft)
13/12/2011 05:10 9,2 C 78 % 1009,2 hPa 0,0 mm 13,7 km/h (3 Bft) S 180 0 min 0 W/m 5,6 C 7,1 C 13,7 km/h (3 Bft)
13/12/2011 05:15 9,1 C 78 % 1009,0 hPa 0,0 mm 15,1 km/h (3 Bft) S-SO 202 0 min 0 W/m 5,5 C 6,8 C 15,1 km/h (3 Bft)
13/12/2011 05:20 9,1 C 78 % 1008,9 hPa 0,0 mm 13,0 km/h (3 Bft) SO 225 0 min 0 W/m 5,5 C 7,1 C 16,2 km/h (3 Bft)
13/12/2011 05:25 9,1 C 78 % 1009,0 hPa 0,0 mm 14,0 km/h (3 Bft) S-SE 157 0 min 0 W/m 5,5 C 6,9 C 18,0 km/h (3 Bft)
13/12/2011 05:30 9,1 C 78 % 1009,0 hPa 0,0 mm 10,4 km/h (2 Bft) S-SO 202 0 min 0 W/m 5,5 C 7,5 C 16,9 km/h (3 Bft)
13/12/2011 05:35 9,1 C 79 % 1009,1 hPa 0,0 mm 13,7 km/h (3 Bft) SO 225 0 min 0 W/m 5,7 C 7,0 C 25,9 km/h (4 Bft)
13/12/2011 05:40 9,1 C 79 % 1009,2 hPa 0,0 mm 10,8 km/h (2 Bft) S-SO 202 0 min 0 W/m 5,7 C 7,4 C 18,7 km/h (3 Bft)
13/12/2011 05:45 9,1 C 79 % 1009,0 hPa 0,0 mm 9,0 km/h (2 Bft) S 180 0 min 0 W/m 5,7 C 7,7 C 11,5 km/h (2 Bft)
13/12/2011 05:50 9,0 C 79 % 1009,0 hPa 0,0 mm 13,7 km/h (3 Bft) SO 225 0 min 0 W/m 5,6 C 6,9 C 17,6 km/h (3 Bft)
13/12/2011 05:55 9,1 C 78 % 1008,9 hPa 0,0 mm 15,1 km/h (3 Bft) SO 225 0 min 0 W/m 5,5 C 6,8 C 21,2 km/h (4 Bft)
13/12/2011 06:00 9,1 C 79 % 1009,0 hPa 0,0 mm 16,6 km/h (3 Bft) S 180 0 min 0 W/m 5,7 C 6,6 C 33,8 km/h (5 Bft)
13/12/2011 06:05 9,1 C 78 % 1008,9 hPa 0,0 mm 21,6 km/h (4 Bft) S-SO 202 0 min 0 W/m 5,5 C 6,1 C 31,3 km/h (5 Bft)
13/12/2011 06:10 9,2 C 78 % 1008,9 hPa 0,0 mm 18,0 km/h (3 Bft) O-SO 247 0 min 0 W/m 5,6 C 6,6 C 18,4 km/h (3 Bft)
13/12/2011 06:15 9,3 C 78 % 1008,8 hPa 0,0 mm 14,4 km/h (3 Bft) SO 225 0 min 0 W/m 5,7 C 7,1 C 14,4 km/h (3 Bft)
13/12/2011 06:20 9,3 C 78 % 1008,8 hPa 0,0 mm 18,4 km/h (3 Bft) S-SO 202 0 min 0 W/m 5,7 C 6,7 C 18,4 km/h (3 Bft)
13/12/2011 06:25 9,3 C 78 % 1008,7 hPa 1,5 mm 20,2 km/h (4 Bft) S-SO 202 0 min 0 W/m 5,7 C 6,5 C 20,2 km/h (4 Bft)
13/12/2011 06:30 9,3 C 78 % 1008,8 hPa 0,0 mm 18,0 km/h (3 Bft) SO 225 0 min 0 W/m 5,7 C 6,7 C 25,2 km/h (4 Bft)
13/12/2011 06:35 9,3 C 78 % 1008,6 hPa 0,0 mm 22,3 km/h (4 Bft) S-SO 202 0 min 0 W/m 5,7 C 6,3 C 29,2 km/h (5 Bft)
13/12/2011 06:40 9,2 C 78 % 1008,6 hPa 0,0 mm 22,3 km/h (4 Bft) S-SE 157 0 min 0 W/m 5,6 C 6,1 C 22,3 km/h (4 Bft)
13/12/2011 06:45 9,1 C 78 % 1008,6 hPa 0,0 mm 12,6 km/h (3 Bft) O 270 0 min 0 W/m 5,5 C 7,1 C 18,4 km/h (3 Bft)
13/12/2011 06:50 9,1 C 79 % 1008,4 hPa 0,0 mm 16,9 km/h (3 Bft) S-SO 202 0 min 0 W/m 5,7 C 6,6 C 21,2 km/h (4 Bft)
13/12/2011 06:55 9,1 C 79 % 1008,3 hPa 0,0 mm 17,6 km/h (3 Bft) SO 225 0 min 0 W/m 5,7 C 6,5 C 23,4 km/h (4 Bft)
13/12/2011 07:00 9,1 C 79 % 1008,1 hPa 0,0 mm 15,8 km/h (3 Bft) SO 225 0 min 0 W/m 5,7 C 6,7 C 15,8 km/h (3 Bft)
13/12/2011 07:05 9,0 C 79 % 1008,1 hPa 0,0 mm 11,9 km/h (2 Bft) S-SO 202 0 min 0 W/m 5,6 C 7,1 C 16,2 km/h (3 Bft)
13/12/2011 07:10 9,1 C 79 % 1008,0 hPa 0,0 mm 14,8 km/h (3 Bft) S-SO 202 0 min 0 W/m 5,7 C 6,8 C 25,2 km/h (4 Bft)
13/12/2011 07:15 9,1 C 79 % 1008,0 hPa 0,0 mm 18,4 km/h (3 Bft) S-SO 202 0 min 0 W/m 5,7 C 6,4 C 29,5 km/h (5 Bft)
13/12/2011 07:20 9,1 C 79 % 1008,1 hPa 0,0 mm 14,0 km/h (3 Bft) SO 225 0 min 0 W/m 5,7 C 6,9 C 17,3 km/h (3 Bft)
13/12/2011 07:25 9,1 C 79 % 1008,2 hPa 0,0 mm 12,6 km/h (3 Bft) S-SO 202 0 min 0 W/m 5,7 C 7,1 C 19,1 km/h (3 Bft)
13/12/2011 07:30 9,1 C 79 % 1008,0 hPa 0,0 mm 14,4 km/h (3 Bft) SO 225 0 min 0 W/m 5,7 C 6,9 C 17,6 km/h (3 Bft)
13/12/2011 07:35 9,1 C 79 % 1008,0 hPa 0,0 mm 17,3 km/h (3 Bft) SO 225 0 min 0 W/m 5,7 C 6,5 C 33,1 km/h (5 Bft)
13/12/2011 07:40 9,1 C 79 % 1007,9 hPa 0,0 mm 13,7 km/h (3 Bft) S-SO 202 0 min 0 W/m 5,7 C 7,0 C 16,6 km/h (3 Bft)
13/12/2011 07:45 9,1 C 80 % 1007,9 hPa 0,0 mm 11,5 km/h (2 Bft) S-SE 157 0 min 0 W/m 5,8 C 7,3 C 15,5 km/h (3 Bft)
13/12/2011 07:50 9,1 C 80 % 1007,8 hPa 0,0 mm 12,2 km/h (2 Bft) S 180 0 min 0 W/m 5,8 C 7,2 C 16,2 km/h (3 Bft)
13/12/2011 07:55 9,1 C 80 % 1007,5 hPa 0,0 mm 14,8 km/h (3 Bft) S-SO 202 0 min 0 W/m 5,8 C 6,8 C 19,1 km/h (3 Bft)
13/12/2011 08:00 9,1 C 80 % 1007,5 hPa 0,0 mm 18,4 km/h (3 Bft) S 180 0 min 0 W/m 5,8 C 6,4 C 18,7 km/h (3 Bft)
13/12/2011 08:05 9,1 C 80 % 1007,6 hPa 0,0 mm 16,6 km/h (3 Bft) SO 225 0 min 0 W/m 5,8 C 6,6 C 16,6 km/h (3 Bft)
13/12/2011 08:10 9,1 C 80 % 1007,6 hPa 0,0 mm 19,4 km/h (3 Bft) S-SO 202 0 min 0 W/m 5,8 C 6,3 C 25,6 km/h (4 Bft)
13/12/2011 08:15 9,1 C 80 % 1007,8 hPa 0,0 mm 9,4 km/h (2 Bft) S-SO 202 0 min 0 W/m 5,8 C 7,7 C 10,1 km/h (2 Bft)
13/12/2011 08:20 9,1 C 80 % 1007,9 hPa 0,0 mm 18,4 km/h (3 Bft) SO 225 0 min 0 W/m 5,8 C 6,4 C 25,9 km/h (4 Bft)
13/12/2011 08:25 9,1 C 80 % 1007,9 hPa 0,0 mm 11,5 km/h (2 Bft) SO 225 0 min 0 W/m 5,8 C 7,3 C 17,6 km/h (3 Bft)
13/12/2011 08:30 9,1 C 80 % 1007,9 hPa 0,0 mm 18,7 km/h (3 Bft) O-SO 247 0 min 0 W/m 5,8 C 6,4 C 27,4 km/h (5 Bft)
13/12/2011 08:35 9,2 C 80 % 1007,9 hPa 0,0 mm 16,6 km/h (3 Bft) SO 225 0 min 0 W/m 5,9 C 6,7 C 22,3 km/h (4 Bft)
13/12/2011 08:40 9,2 C 80 % 1007,9 hPa 0,0 mm 15,1 km/h (3 Bft) S-SE 157 0 min 0 W/m 5,9 C 6,9 C 20,9 km/h (4 Bft)
13/12/2011 08:45 9,3 C 80 % 1007,6 hPa 0,0 mm 15,8 km/h (3 Bft) O-SO 247 0 min 0 W/m 6,0 C 7,0 C 27,0 km/h (5 Bft)
13/12/2011 08:50 9,3 C 80 % 1007,6 hPa 0,0 mm 15,8 km/h (3 Bft) S-SO 202 0 min 0 W/m 6,0 C 7,0 C 30,2 km/h (5 Bft)
13/12/2011 08:55 9,4 C 80 % 1007,8 hPa 0,0 mm 20,9 km/h (4 Bft) O-SO 247 0 min 0 W/m 6,1 C 6,5 C 34,6 km/h (5 Bft)
13/12/2011 09:00 9,4 C 79 % 1007,8 hPa 0,0 mm 13,3 km/h (3 Bft) SO 225 0 min 0 W/m 5,9 C 7,4 C 21,6 km/h (4 Bft)
13/12/2011 09:05 9,4 C 79 % 1007,7 hPa 0,0 mm 15,5 km/h (3 Bft) S-SO 202 0 min 0 W/m 5,9 C 7,1 C 24,8 km/h (4 Bft)
13/12/2011 09:10 9,5 C 79 % 1007,6 hPa 0,0 mm 20,9 km/h (4 Bft) S-SO 202 0 min 0 W/m 6,0 C 6,7 C 23,4 km/h (4 Bft)
13/12/2011 09:15 9,5 C 79 % 1007,6 hPa 0,0 mm 16,6 km/h (3 Bft) S-SO 202 0 min 0 W/m 6,0 C 7,1 C 24,1 km/h (4 Bft)
13/12/2011 09:20 9,6 C 79 % 1007,6 hPa 0,0 mm 13,7 km/h (3 Bft) S-SO 202 0 min 0 W/m 6,1 C 7,6 C 25,2 km/h (4 Bft)
13/12/2011 09:25 9,5 C 80 % 1007,6 hPa 0,0 mm 18,7 km/h (3 Bft) S-SO 202 0 min 0 W/m 6,2 C 6,9 C 25,2 km/h (4 Bft)
13/12/2011 09:30 9,3 C 81 % 1007,6 hPa 0,1 mm 16,2 km/h (3 Bft) S 180 0 min 0 W/m 6,2 C 6,9 C 22,7 km/h (4 Bft)
13/12/2011 09:35 9,1 C 83 % 1007,6 hPa 0,1 mm 14,4 km/h (3 Bft) SO 225 0 min 0 W/m 6,4 C 6,9 C 15,5 km/h (3 Bft)
13/12/2011 09:40 8,9 C 84 % 1007,4 hPa 0,0 mm 19,1 km/h (3 Bft) S-SO 202 0 min 0 W/m 6,3 C 6,1 C 26,6 km/h (4 Bft)
13/12/2011 09:45 8,9 C 84 % 1007,5 hPa 0,1 mm 12,2 km/h (2 Bft) O-SO 247 0 min 0 W/m 6,3 C 7,0 C 24,8 km/h (4 Bft)
13/12/2011 09:50 8,8 C 85 % 1007,4 hPa 0,0 mm 15,5 km/h (3 Bft) SO 225 0 min 0 W/m 6,4 C 6,4 C 16,9 km/h (3 Bft)
13/12/2011 09:55 8,8 C 86 % 1007,5 hPa 0,0 mm 13,3 km/h (3 Bft) S-SO 202 0 min 0 W/m 6,6 C 6,7 C 30,6 km/h (5 Bft)
13/12/2011 10:00 8,8 C 86 % 1007,6 hPa 0,0 mm 20,5 km/h (4 Bft) O-SO 247 0 min 0 W/m 6,6 C 5,8 C 28,4 km/h (5 Bft)
13/12/2011 10:05 8,8 C 86 % 1007,7 hPa 0,1 mm 13,3 km/h (3 Bft) SO 225 0 min 0 W/m 6,6 C 6,7 C 20,9 km/h (4 Bft)
13/12/2011 10:10 8,7 C 87 % 1007,8 hPa 0,1 mm 17,3 km/h (3 Bft) SO 225 0 min 0 W/m 6,7 C 6,0 C 30,2 km/h (5 Bft)
13/12/2011 10:15 8,6 C 87 % 1007,6 hPa 0,0 mm 19,4 km/h (3 Bft) O-SO 247 0 min 0 W/m 6,6 C 5,7 C 21,6 km/h (4 Bft)
13/12/2011 10:20 8,6 C 88 % 1007,7 hPa 0,0 mm 21,2 km/h (4 Bft) SO 225 0 min 0 W/m 6,7 C 5,5 C 31,0 km/h (5 Bft)
13/12/2011 10:25 8,6 C 88 % 1007,7 hPa 0,0 mm 14,0 km/h (3 Bft) S 180 0 min 0 W/m 6,7 C 6,3 C 20,2 km/h (4 Bft)
13/12/2011 10:30 8,6 C 88 % 1007,6 hPa 0,1 mm 19,8 km/h (3 Bft) S-SO 202 0 min 0 W/m 6,7 C 5,6 C 19,8 km/h (3 Bft)
13/12/2011 10:35 8,7 C 89 % 1007,6 hPa 0,0 mm 22,7 km/h (4 Bft) S-SO 202 0 min 0 W/m 7,0 C 5,5 C 29,5 km/h (5 Bft)
13/12/2011 10:40 8,6 C 89 % 1007,7 hPa 0,0 mm 17,3 km/h (3 Bft) S-SO 202 0 min 0 W/m 6,9 C 5,9 C 17,3 km/h (3 Bft)
13/12/2011 10:45 8,6 C 89 % 1007,7 hPa 0,0 mm 18,7 km/h (3 Bft) S-SO 202 0 min 0 W/m 6,9 C 5,7 C 25,2 km/h (4 Bft)
13/12/2011 10:50 8,8 C 89 % 1007,7 hPa 0,0 mm 13,0 km/h (3 Bft) O-SO 247 0 min 0 W/m 7,1 C 6,7 C 16,9 km/h (3 Bft)
13/12/2011 10:55 8,8 C 89 % 1007,5 hPa 0,0 mm 16,2 km/h (3 Bft) SO 225 0 min 0 W/m 7,1 C 6,3 C 23,4 km/h (4 Bft)
13/12/2011 11:00 8,8 C 89 % 1007,6 hPa 0,0 mm 17,3 km/h (3 Bft) SO 225 0 min 0 W/m 7,1 C 6,2 C 22,3 km/h (4 Bft)
13/12/2011 11:05 8,8 C 89 % 1007,7 hPa 0,0 mm 11,9 km/h (2 Bft) S-SO 202 0 min 0 W/m 7,1 C 6,9 C 21,6 km/h (4 Bft)
13/12/2011 11:10 8,8 C 89 % 1007,6 hPa 0,0 mm 18,0 km/h (3 Bft) SO 225 0 min 0 W/m 7,1 C 6,1 C 28,1 km/h (5 Bft)
13/12/2011 11:15 8,9 C 89 % 1007,5 hPa 0,0 mm 15,5 km/h (3 Bft) SO 225 0 min 0 W/m 7,2 C 6,5 C 23,0 km/h (4 Bft)
13/12/2011 11:20 8,9 C 88 % 1007,7 hPa 0,0 mm 18,4 km/h (3 Bft) SO 225 0 min 0 W/m 7,0 C 6,2 C 24,1 km/h (4 Bft)
13/12/2011 11:25 8,9 C 88 % 1007,6 hPa 0,1 mm 19,8 km/h (3 Bft) O-SO 247 0 min 0 W/m 7,0 C 6,0 C 31,0 km/h (5 Bft)
13/12/2011 11:30 8,9 C 89 % 1007,7 hPa 0,0 mm 18,7 km/h (3 Bft) SO 225 0 min 0 W/m 7,2 C 6,1 C 28,4 km/h (5 Bft)
13/12/2011 11:35 8,9 C 89 % 1007,7 hPa 0,0 mm 11,9 km/h (2 Bft) SO 225 0 min 0 W/m 7,2 C 7,0 C 15,5 km/h (3 Bft)
13/12/2011 11:40 8,9 C 89 % 1007,5 hPa 0,0 mm 17,3 km/h (3 Bft) SO 225 0 min 0 W/m 7,2 C 6,3 C 22,3 km/h (4 Bft)
13/12/2011 11:45 8,9 C 89 % 1007,3 hPa 0,1 mm 14,8 km/h (3 Bft) S-SE 157 0 min 0 W/m 7,2 C 6,6 C 26,3 km/h (4 Bft)
13/12/2011 11:50 8,9 C 89 % 1007,3 hPa 0,0 mm 16,6 km/h (3 Bft) S-SO 202 0 min 0 W/m 7,2 C 6,4 C 18,7 km/h (3 Bft)
13/12/2011 11:55 8,9 C 89 % 1007,4 hPa 0,1 mm 26,6 km/h (4 Bft) S-SO 202 0 min 0 W/m 7,2 C 5,4 C 36,4 km/h (5 Bft)
13/12/2011 12:00 8,9 C 89 % 1007,3 hPa 0,0 mm 17,6 km/h (3 Bft) S-SO 202 0 min 0 W/m 7,2 C 6,2 C 19,1 km/h (3 Bft)
13/12/2011 12:05 8,9 C 89 % 1007,5 hPa 0,0 mm 18,7 km/h (3 Bft) S-SO 202 0 min 0 W/m 7,2 C 6,1 C 26,6 km/h (4 Bft)
13/12/2011 12:10 8,9 C 90 % 1007,6 hPa 0,0 mm 19,4 km/h (3 Bft) SO 225 0 min 0 W/m 7,4 C 6,0 C 22,7 km/h (4 Bft)
13/12/2011 12:15 8,9 C 90 % 1007,7 hPa 0,1 mm 13,3 km/h (3 Bft) S-SO 202 0 min 0 W/m 7,4 C 6,8 C 25,9 km/h (4 Bft)
13/12/2011 12:20 8,8 C 90 % 1007,8 hPa 0,0 mm 16,9 km/h (3 Bft) SO 225 0 min 0 W/m 7,3 C 6,2 C 28,1 km/h (5 Bft)
13/12/2011 12:25 8,8 C 90 % 1007,7 hPa 0,0 mm 19,8 km/h (3 Bft) S-SO 202 0 min 0 W/m 7,3 C 5,9 C 29,2 km/h (5 Bft)
13/12/2011 12:30 8,8 C 90 % 1007,8 hPa 0,0 mm 14,4 km/h (3 Bft) SO 225 0 min 0 W/m 7,3 C 6,5 C 23,8 km/h (4 Bft)
13/12/2011 12:35 8,8 C 90 % 1007,8 hPa 0,0 mm 19,8 km/h (3 Bft) SO 225 0 min 0 W/m 7,3 C 5,9 C 24,1 km/h (4 Bft)
13/12/2011 12:40 8,8 C 90 % 1007,7 hPa 0,1 mm 13,7 km/h (3 Bft) S-SO 202 0 min 0 W/m 7,3 C 6,6 C 17,3 km/h (3 Bft)
13/12/2011 12:45 8,9 C 90 % 1007,6 hPa 0,0 mm 14,4 km/h (3 Bft) S-SO 202 0 min 0 W/m 7,4 C 6,6 C 18,4 km/h (3 Bft)
13/12/2011 12:50 9,1 C 89 % 1007,7 hPa 0,0 mm 11,5 km/h (2 Bft) S-SO 202 0 min 0 W/m 7,4 C 7,3 C 13,3 km/h (3 Bft)
13/12/2011 12:55 9,2 C 89 % 1007,6 hPa 0,0 mm 16,9 km/h (3 Bft) S-SO 202 0 min 0 W/m 7,5 C 6,7 C 17,3 km/h (3 Bft)
13/12/2011 13:00 9,3 C 89 % 1007,5 hPa 0,0 mm 10,8 km/h (2 Bft) S-SO 202 0 min 0 W/m 7,6 C 7,7 C 12,6 km/h (3 Bft)
13/12/2011 13:05 9,3 C 88 % 1007,6 hPa 0,0 mm 14,4 km/h (3 Bft) SO 225 0 min 0 W/m 7,4 C 7,1 C 14,4 km/h (3 Bft)
13/12/2011 13:10 9,4 C 88 % 1007,7 hPa 0,0 mm 14,4 km/h (3 Bft) S 180 0 min 0 W/m 7,5 C 7,3 C 16,9 km/h (3 Bft)
13/12/2011 13:15 9,4 C 87 % 1007,7 hPa 0,0 mm 16,6 km/h (3 Bft) S-SO 202 0 min 0 W/m 7,3 C 7,0 C 22,3 km/h (4 Bft)
13/12/2011 13:20 9,5 C 87 % 1007,5 hPa 0,0 mm 14,8 km/h (3 Bft) SO 225 0 min 0 W/m 7,4 C 7,3 C 22,0 km/h (4 Bft)
13/12/2011 13:25 9,4 C 87 % 1007,4 hPa 0,0 mm 16,2 km/h (3 Bft) S 180 0 min 0 W/m 7,3 C 7,0 C 23,8 km/h (4 Bft)
13/12/2011 13:30 9,5 C 87 % 1007,4 hPa 0,0 mm 14,4 km/h (3 Bft) SO 225 0 min 0 W/m 7,4 C 7,4 C 17,6 km/h (3 Bft)
13/12/2011 13:35 9,6 C 87 % 1007,5 hPa 0,0 mm 18,4 km/h (3 Bft) SO 225 0 min 0 W/m 7,5 C 7,0 C 21,6 km/h (4 Bft)
13/12/2011 13:40 9,6 C 87 % 1007,6 hPa 0,0 mm 15,1 km/h (3 Bft) S-SO 202 0 min 0 W/m 7,5 C 7,4 C 15,1 km/h (3 Bft)
13/12/2011 13:45 9,6 C 87 % 1007,6 hPa 0,0 mm 10,8 km/h (2 Bft) S 180 0 min 0 W/m 7,5 C 8,0 C 15,1 km/h (3 Bft)
13/12/2011 13:50 9,6 C 87 % 1007,6 hPa 0,1 mm 15,1 km/h (3 Bft) S-SO 202 0 min 0 W/m 7,5 C 7,4 C 16,9 km/h (3 Bft)
13/12/2011 13:55 9,6 C 89 % 1007,6 hPa 0,0 mm 14,0 km/h (3 Bft) S-SO 202 0 min 0 W/m 7,9 C 7,5 C 19,1 km/h (3 Bft)
13/12/2011 14:00 9,6 C 89 % 1007,7 hPa 0,1 mm 12,2 km/h (2 Bft) SO 225 0 min 0 W/m 7,9 C 7,8 C 22,0 km/h (4 Bft)
13/12/2011 14:05 9,6 C 89 % 1007,7 hPa 0,0 mm 14,4 km/h (3 Bft) S-SO 202 0 min 0 W/m 7,9 C 7,5 C 16,6 km/h (3 Bft)
13/12/2011 14:10 9,7 C 89 % 1007,7 hPa 0,0 mm 9,4 km/h (2 Bft) SO 225 0 min 0 W/m 8,0 C 8,4 C 10,4 km/h (2 Bft)
13/12/2011 14:15 9,6 C 90 % 1007,6 hPa 0,1 mm 16,6 km/h (3 Bft) SO 225 0 min 0 W/m 8,0 C 7,2 C 16,6 km/h (3 Bft)
13/12/2011 14:20 9,6 C 90 % 1007,7 hPa 0,0 mm 13,0 km/h (3 Bft) SO 225 0 min 0 W/m 8,0 C 7,7 C 15,1 km/h (3 Bft)
13/12/2011 14:25 9,6 C 90 % 1007,6 hPa 0,0 mm 17,6 km/h (3 Bft) S 180 0 min 0 W/m 8,0 C 7,1 C 17,6 km/h (3 Bft)
13/12/2011 14:30 9,6 C 90 % 1007,7 hPa 0,0 mm 15,8 km/h (3 Bft) S-SO 202 0 min 0 W/m 8,0 C 7,3 C 22,3 km/h (4 Bft)
13/12/2011 14:35 9,6 C 90 % 1007,7 hPa 0,0 mm 18,7 km/h (3 Bft) S-SO 202 0 min 0 W/m 8,0 C 7,0 C 21,2 km/h (4 Bft)
13/12/2011 14:40 9,6 C 90 % 1007,8 hPa 0,0 mm 11,5 km/h (2 Bft) SO 225 0 min 0 W/m 8,0 C 7,9 C 17,6 km/h (3 Bft)
13/12/2011 14:45 9,6 C 91 % 1007,9 hPa 0,1 mm 15,5 km/h (3 Bft) S-SE 157 0 min 0 W/m 8,2 C 7,4 C 18,7 km/h (3 Bft)
13/12/2011 14:50 9,6 C 91 % 1008,0 hPa 0,0 mm 17,3 km/h (3 Bft) SO 225 0 min 0 W/m 8,2 C 7,2 C 17,3 km/h (3 Bft)
13/12/2011 14:55 9,5 C 91 % 1007,9 hPa 0,0 mm 14,4 km/h (3 Bft) S-SO 202 0 min 0 W/m 8,1 C 7,4 C 16,2 km/h (3 Bft)
13/12/2011 15:00 9,5 C 92 % 1008,0 hPa 0,1 mm 15,1 km/h (3 Bft) SO 225 0 min 0 W/m 8,3 C 7,3 C 20,2 km/h (4 Bft)
13/12/2011 15:05 9,5 C 92 % 1008,1 hPa 0,0 mm 13,3 km/h (3 Bft) S-SO 202 0 min 0 W/m 8,3 C 7,5 C 16,2 km/h (3 Bft)
13/12/2011 15:10 9,4 C 92 % 1008,0 hPa 0,3 mm 13,0 km/h (3 Bft) S-SO 202 0 min 0 W/m 8,2 C 7,4 C 16,6 km/h (3 Bft)
13/12/2011 15:15 9,4 C 93 % 1008,1 hPa 0,0 mm 14,4 km/h (3 Bft) S-SO 202 0 min 0 W/m 8,3 C 7,3 C 19,8 km/h (3 Bft)
13/12/2011 15:20 9,3 C 93 % 1008,3 hPa 0,2 mm 14,4 km/h (3 Bft) O-SO 247 0 min 0 W/m 8,2 C 7,1 C 19,8 km/h (3 Bft)
13/12/2011 15:25 9,3 C 93 % 1008,4 hPa 0,0 mm 14,0 km/h (3 Bft) S-SO 202 0 min 0 W/m 8,2 C 7,2 C 23,4 km/h (4 Bft)
13/12/2011 15:30 9,2 C 93 % 1008,5 hPa 0,1 mm 11,5 km/h (2 Bft) SO 225 0 min 0 W/m 8,1 C 7,4 C 15,1 km/h (3 Bft)
13/12/2011 15:35 9,1 C 93 % 1008,5 hPa 0,0 mm 11,2 km/h (2 Bft) S-SO 202 0 min 0 W/m 8,0 C 7,4 C 15,1 km/h (3 Bft)
13/12/2011 15:40 9,1 C 94 % 1008,5 hPa 0,0 mm 11,9 km/h (2 Bft) SO 225 0 min 0 W/m 8,2 C 7,2 C 12,2 km/h (2 Bft)
13/12/2011 15:45 9,1 C 94 % 1008,5 hPa 0,0 mm 15,5 km/h (3 Bft) O-SO 247 0 min 0 W/m 8,2 C 6,7 C 19,4 km/h (3 Bft)
13/12/2011 15:50 9,1 C 94 % 1008,5 hPa 0,0 mm 10,4 km/h (2 Bft) SO 225 0 min 0 W/m 8,2 C 7,5 C 16,2 km/h (3 Bft)
13/12/2011 15:55 9,1 C 94 % 1008,5 hPa 0,0 mm 10,4 km/h (2 Bft) S 180 0 min 0 W/m 8,2 C 7,5 C 10,4 km/h (2 Bft)
13/12/2011 16:00 9,1 C 94 % 1008,5 hPa 0,0 mm 9,0 km/h (2 Bft) S-SO 202 0 min 0 W/m 8,2 C 7,7 C 13,3 km/h (3 Bft)
13/12/2011 16:05 9,1 C 94 % 1008,5 hPa 0,0 mm 8,6 km/h (2 Bft) SO 225 0 min 0 W/m 8,2 C 7,8 C 9,0 km/h (2 Bft)
13/12/2011 16:10 9,1 C 94 % 1008,6 hPa 0,0 mm 8,3 km/h (2 Bft) SO 225 0 min 0 W/m 8,2 C 7,9 C 8,3 km/h (2 Bft)
13/12/2011 16:15 9,1 C 94 % 1008,7 hPa 0,0 mm 5,4 km/h (2 Bft) SO 225 0 min 0 W/m 8,2 C 8,6 C 10,8 km/h (2 Bft)
13/12/2011 16:20 9,1 C 94 % 1008,7 hPa 0,0 mm 9,0 km/h (2 Bft) SO 225 0 min 0 W/m 8,2 C 7,7 C 12,2 km/h (2 Bft)
13/12/2011 16:25 9,1 C 94 % 1008,7 hPa 0,0 mm 8,6 km/h (2 Bft) S-SO 202 0 min 0 W/m 8,2 C 7,8 C 9,7 km/h (2 Bft)
13/12/2011 16:30 9,1 C 94 % 1008,8 hPa 0,0 mm 7,6 km/h (2 Bft) SO 225 0 min 0 W/m 8,2 C 8,0 C 8,6 km/h (2 Bft)
13/12/2011 16:35 9,1 C 94 % 1008,8 hPa 0,0 mm 11,9 km/h (2 Bft) S-SO 202 0 min 0 W/m 8,2 C 7,2 C 17,6 km/h (3 Bft)
13/12/2011 16:40 9,1 C 94 % 1008,9 hPa 0,0 mm 7,6 km/h (2 Bft) SO 225 0 min 0 W/m 8,2 C 8,0 C 10,4 km/h (2 Bft)
13/12/2011 16:45 9,1 C 94 % 1008,7 hPa 0,0 mm 6,5 km/h (2 Bft) SO 225 0 min 0 W/m 8,2 C 8,3 C 9,4 km/h (2 Bft)
13/12/2011 16:50 9,2 C 94 % 1008,8 hPa 0,0 mm 10,8 km/h (2 Bft) S-SO 202 0 min 0 W/m 8,3 C 7,5 C 14,4 km/h (3 Bft)
13/12/2011 16:55 9,2 C 94 % 1008,7 hPa 0,0 mm 7,2 km/h (2 Bft) S-SO 202 0 min 0 W/m 8,3 C 8,2 C 12,6 km/h (3 Bft)
13/12/2011 17:00 9,3 C 94 % 1008,7 hPa 0,0 mm 10,8 km/h (2 Bft) SO 225 0 min 0 W/m 8,4 C 7,7 C 11,2 km/h (2 Bft)
13/12/2011 17:05 9,4 C 94 % 1008,7 hPa 0,0 mm 9,4 km/h (2 Bft) SO 225 0 min 0 W/m 8,5 C 8,0 C 16,2 km/h (3 Bft)
13/12/2011 17:10 9,4 C 94 % 1008,7 hPa 0,0 mm 7,2 km/h (2 Bft) S-SO 202 0 min 0 W/m 8,5 C 8,5 C 7,6 km/h (2 Bft)
13/12/2011 17:15 9,4 C 94 % 1008,7 hPa 0,0 mm 10,1 km/h (2 Bft) S-SO 202 0 min 0 W/m 8,5 C 7,9 C 14,8 km/h (3 Bft)
13/12/2011 17:20 9,4 C 94 % 1008,7 hPa 0,0 mm 9,0 km/h (2 Bft) SO 225 0 min 0 W/m 8,5 C 8,1 C 13,7 km/h (3 Bft)
13/12/2011 17:25 9,4 C 94 % 1008,7 hPa 0,0 mm 9,4 km/h (2 Bft) S-SE 157 0 min 0 W/m 8,5 C 8,0 C 15,8 km/h (3 Bft)
13/12/2011 17:30 9,4 C 94 % 1008,7 hPa 0,0 mm 9,7 km/h (2 Bft) S-SO 202 0 min 0 W/m 8,5 C 8,0 C 15,5 km/h (3 Bft)
13/12/2011 17:35 9,4 C 94 % 1008,7 hPa 0,0 mm 8,3 km/h (2 Bft) SO 225 0 min 0 W/m 8,5 C 8,2 C 8,3 km/h (2 Bft)
13/12/2011 17:40 9,4 C 94 % 1008,8 hPa 0,0 mm 10,1 km/h (2 Bft) SO 225 0 min 0 W/m 8,5 C 7,9 C 14,8 km/h (3 Bft)
13/12/2011 17:45 9,4 C 94 % 1008,7 hPa 0,1 mm 9,0 km/h (2 Bft) S 180 0 min 0 W/m 8,5 C 8,1 C 11,9 km/h (2 Bft)
13/12/2011 17:50 9,4 C 94 % 1008,7 hPa 0,0 mm 11,5 km/h (2 Bft) S 180 0 min 0 W/m 8,5 C 7,7 C 12,2 km/h (2 Bft)
13/12/2011 17:55 9,3 C 94 % 1008,8 hPa 0,0 mm 6,8 km/h (2 Bft) S 180 0 min 0 W/m 8,4 C 8,5 C 6,8 km/h (2 Bft)
13/12/2011 18:00 9,4 C 94 % 1008,9 hPa 0,1 mm 14,4 km/h (3 Bft) S 180 0 min 0 W/m 8,5 C 7,3 C 14,8 km/h (3 Bft)
13/12/2011 18:05 9,4 C 94 % 1008,9 hPa 0,0 mm 9,0 km/h (2 Bft) SO 225 0 min 0 W/m 8,5 C 8,1 C 13,7 km/h (3 Bft)
13/12/2011 18:10 9,4 C 94 % 1009,0 hPa 0,0 mm 8,6 km/h (2 Bft) O-SO 247 0 min 0 W/m 8,5 C 8,2 C 9,7 km/h (2 Bft)
13/12/2011 18:15 9,4 C 94 % 1009,0 hPa 0,0 mm 11,5 km/h (2 Bft) SO 225 0 min 0 W/m 8,5 C 7,7 C 15,5 km/h (3 Bft)
13/12/2011 18:20 9,5 C 94 % 1009,1 hPa 0,0 mm 9,0 km/h (2 Bft) S-SE 157 0 min 0 W/m 8,6 C 8,2 C 11,2 km/h (2 Bft)
13/12/2011 18:25 9,5 C 94 % 1009,0 hPa 0,0 mm 7,9 km/h (2 Bft) SO 225 0 min 0 W/m 8,6 C 8,4 C 9,4 km/h (2 Bft)
13/12/2011 18:30 9,4 C 94 % 1009,1 hPa 0,0 mm 7,6 km/h (2 Bft) O-SO 247 0 min 0 W/m 8,5 C 8,4 C 7,6 km/h (2 Bft)
13/12/2011 18:35 9,4 C 94 % 1009,1 hPa 0,0 mm 6,8 km/h (2 Bft) SO 225 0 min 0 W/m 8,5 C 8,6 C 9,0 km/h (2 Bft)
13/12/2011 18:40 9,4 C 94 % 1009,0 hPa 0,0 mm 6,5 km/h (2 Bft) SO 225 0 min 0 W/m 8,5 C 8,7 C 13,3 km/h (3 Bft)
13/12/2011 18:45 9,4 C 94 % 1009,1 hPa 0,0 mm 6,8 km/h (2 Bft) SO 225 0 min 0 W/m 8,5 C 8,6 C 10,8 km/h (2 Bft)
13/12/2011 18:50 9,4 C 94 % 1009,2 hPa 0,0 mm 8,3 km/h (2 Bft) SO 225 0 min 0 W/m 8,5 C 8,2 C 17,6 km/h (3 Bft)
13/12/2011 18:55 9,3 C 94 % 1009,2 hPa 0,0 mm 5,0 km/h (1 Bft) SO 225 0 min 0 W/m 8,4 C 9,0 C 5,0 km/h (1 Bft)
13/12/2011 19:00 9,3 C 94 % 1009,4 hPa 0,0 mm 3,6 km/h (1 Bft) S-SO 202 0 min 0 W/m 8,4 C 9,3 C 6,5 km/h (2 Bft)
13/12/2011 19:05 9,2 C 94 % 1009,5 hPa 0,0 mm 6,1 km/h (2 Bft) S-SO 202 0 min 0 W/m 8,3 C 8,5 C 9,7 km/h (2 Bft)
13/12/2011 19:10 9,2 C 94 % 1009,4 hPa 0,0 mm 6,5 km/h (2 Bft) S-SO 202 0 min 0 W/m 8,3 C 8,4 C 9,4 km/h (2 Bft)
13/12/2011 19:15 9,1 C 94 % 1009,4 hPa 0,0 mm 2,9 km/h (1 Bft) SO 225 0 min 0 W/m 8,2 C 9,1 C 2,9 km/h (1 Bft)
13/12/2011 19:20 9,1 C 94 % 1009,4 hPa 0,0 mm 6,8 km/h (2 Bft) SO 225 0 min 0 W/m 8,2 C 8,2 C 6,8 km/h (2 Bft)
13/12/2011 19:25 9,1 C 94 % 1009,5 hPa 0,0 mm 6,8 km/h (2 Bft) SO 225 0 min 0 W/m 8,2 C 8,2 C 8,3 km/h (2 Bft)
13/12/2011 19:30 9,1 C 94 % 1009,5 hPa 0,0 mm 5,4 km/h (2 Bft) SO 225 0 min 0 W/m 8,2 C 8,6 C 9,4 km/h (2 Bft)
13/12/2011 19:35 9,1 C 94 % 1009,5 hPa 0,0 mm 6,5 km/h (2 Bft) SO 225 0 min 0 W/m 8,2 C 8,3 C 9,7 km/h (2 Bft)
13/12/2011 19:40 9,1 C 94 % 1009,5 hPa 0,0 mm 6,5 km/h (2 Bft) S-SO 202 0 min 0 W/m 8,2 C 8,3 C 10,8 km/h (2 Bft)
13/12/2011 19:45 9,1 C 94 % 1009,5 hPa 0,0 mm 6,8 km/h (2 Bft) SO 225 0 min 0 W/m 8,2 C 8,2 C 11,5 km/h (2 Bft)
13/12/2011 19:50 9,1 C 94 % 1009,5 hPa 0,0 mm 6,5 km/h (2 Bft) SO 225 0 min 0 W/m 8,2 C 8,3 C 11,5 km/h (2 Bft)
13/12/2011 19:55 9,1 C 94 % 1009,4 hPa 0,0 mm 7,6 km/h (2 Bft) S-SO 202 0 min 0 W/m 8,2 C 8,0 C 9,0 km/h (2 Bft)
13/12/2011 20:00 9,1 C 94 % 1009,4 hPa 0,0 mm 6,8 km/h (2 Bft) SO 225 0 min 0 W/m 8,2 C 8,2 C 10,1 km/h (2 Bft)
13/12/2011 20:05 9,1 C 95 % 1009,6 hPa 0,0 mm 5,8 km/h (2 Bft) SO 225 0 min 0 W/m 8,3 C 8,5 C 5,8 km/h (2 Bft)
13/12/2011 20:10 9,1 C 95 % 1009,4 hPa 0,0 mm 5,0 km/h (1 Bft) S-SO 202 0 min 0 W/m 8,3 C 8,7 C 10,1 km/h (2 Bft)
13/12/2011 20:15 9,0 C 94 % 1009,4 hPa 0,0 mm 7,9 km/h (2 Bft) S-SO 202 0 min 0 W/m 8,1 C 7,9 C 8,3 km/h (2 Bft)
13/12/2011 20:20 8,9 C 94 % 1009,3 hPa 0,0 mm 9,0 km/h (2 Bft) S-SO 202 0 min 0 W/m 8,0 C 7,5 C 10,8 km/h (2 Bft)
13/12/2011 20:25 8,9 C 95 % 1009,3 hPa 0,0 mm 6,1 km/h (2 Bft) S-SO 202 0 min 0 W/m 8,1 C 8,2 C 8,3 km/h (2 Bft)
13/12/2011 20:30 8,9 C 95 % 1009,3 hPa 0,0 mm 3,6 km/h (1 Bft) SO 225 0 min 0 W/m 8,1 C 8,9 C 6,8 km/h (2 Bft)
13/12/2011 20:35 8,9 C 95 % 1009,2 hPa 0,0 mm 3,2 km/h (1 Bft) S-SO 202 0 min 0 W/m 8,1 C 8,9 C 3,2 km/h (1 Bft)
13/12/2011 20:40 8,8 C 95 % 1009,3 hPa 0,0 mm 5,0 km/h (1 Bft) SO 225 0 min 0 W/m 8,0 C 8,4 C 5,0 km/h (1 Bft)
13/12/2011 20:45 8,8 C 95 % 1009,2 hPa 0,0 mm 4,0 km/h (1 Bft) S-SO 202 0 min 0 W/m 8,0 C 8,8 C 6,8 km/h (2 Bft)
13/12/2011 20:50 8,6 C 95 % 1009,3 hPa 0,0 mm 6,5 km/h (2 Bft) S-SO 202 0 min 0 W/m 7,8 C 7,7 C 7,9 km/h (2 Bft)
13/12/2011 20:55 8,6 C 95 % 1009,3 hPa 0,0 mm 3,6 km/h (1 Bft) S-SO 202 0 min 0 W/m 7,8 C 8,6 C 6,1 km/h (2 Bft)
13/12/2011 21:00 8,6 C 95 % 1009,3 hPa 0,0 mm 4,3 km/h (1 Bft) S-SO 202 0 min 0 W/m 7,8 C 8,6 C 7,9 km/h (2 Bft)
13/12/2011 21:05 8,6 C 95 % 1009,3 hPa 0,0 mm 4,7 km/h (1 Bft) S 180 0 min 0 W/m 7,8 C 8,3 C 10,4 km/h (2 Bft)
13/12/2011 21:10 8,6 C 95 % 1009,3 hPa 0,0 mm 6,5 km/h (2 Bft) SO 225 0 min 0 W/m 7,8 C 7,7 C 9,4 km/h (2 Bft)
13/12/2011 21:15 8,6 C 95 % 1009,3 hPa 0,0 mm 9,0 km/h (2 Bft) S-SO 202 0 min 0 W/m 7,8 C 7,2 C 12,6 km/h (3 Bft)
13/12/2011 21:20 8,8 C 95 % 1009,3 hPa 0,0 mm 7,6 km/h (2 Bft) S-SO 202 0 min 0 W/m 8,0 C 7,7 C 9,4 km/h (2 Bft)
13/12/2011 21:25 8,8 C 95 % 1009,3 hPa 0,0 mm 5,8 km/h (2 Bft) S 180 0 min 0 W/m 8,0 C 8,1 C 6,5 km/h (2 Bft)
13/12/2011 21:30 8,8 C 95 % 1009,3 hPa 0,0 mm 5,4 km/h (2 Bft) S-SO 202 0 min 0 W/m 8,0 C 8,3 C 7,2 km/h (2 Bft)
13/12/2011 21:35 8,7 C 95 % 1009,1 hPa 0,0 mm 5,4 km/h (2 Bft) SO 225 0 min 0 W/m 7,9 C 8,2 C 7,6 km/h (2 Bft)
13/12/2011 21:40 8,7 C 95 % 1009,1 hPa 0,0 mm 8,3 km/h (2 Bft) S-SO 202 0 min 0 W/m 7,9 C 7,4 C 14,0 km/h (3 Bft)
13/12/2011 21:45 8,7 C 95 % 1009,1 hPa 0,0 mm 6,1 km/h (2 Bft) S-SO 202 0 min 0 W/m 7,9 C 7,9 C 9,0 km/h (2 Bft)
13/12/2011 21:50 8,8 C 95 % 1009,1 hPa 0,0 mm 6,1 km/h (2 Bft) S 180 0 min 0 W/m 8,0 C 8,1 C 7,2 km/h (2 Bft)
13/12/2011 21:55 8,8 C 95 % 1009,0 hPa 0,0 mm 10,8 km/h (2 Bft) S 180 0 min 0 W/m 8,0 C 7,1 C 10,8 km/h (2 Bft)
13/12/2011 22:00 8,8 C 95 % 1008,8 hPa 0,0 mm 7,2 km/h (2 Bft) SO 225 0 min 0 W/m 8,0 C 7,8 C 10,8 km/h (2 Bft)
13/12/2011 22:05 8,8 C 95 % 1008,8 hPa 0,0 mm 6,1 km/h (2 Bft) S-SO 202 0 min 0 W/m 8,0 C 8,1 C 10,4 km/h (2 Bft)
13/12/2011 22:10 8,8 C 95 % 1008,8 hPa 0,0 mm 8,6 km/h (2 Bft) S-SO 202 0 min 0 W/m 8,0 C 7,5 C 13,0 km/h (3 Bft)
13/12/2011 22:15 8,8 C 95 % 1008,6 hPa 0,0 mm 6,8 km/h (2 Bft) SO 225 0 min 0 W/m 8,0 C 7,9 C 13,3 km/h (3 Bft)
13/12/2011 22:20 8,7 C 95 % 1008,5 hPa 0,0 mm 7,9 km/h (2 Bft) S-SO 202 0 min 0 W/m 7,9 C 7,5 C 16,6 km/h (3 Bft)
13/12/2011 22:25 8,7 C 95 % 1008,3 hPa 0,0 mm 8,6 km/h (2 Bft) SO 225 0 min 0 W/m 7,9 C 7,4 C 11,9 km/h (2 Bft)
13/12/2011 22:30 8,6 C 95 % 1008,3 hPa 0,0 mm 7,6 km/h (2 Bft) S-SO 202 0 min 0 W/m 7,8 C 7,5 C 15,5 km/h (3 Bft)
13/12/2011 22:35 8,6 C 94 % 1008,3 hPa 0,0 mm 5,8 km/h (2 Bft) SO 225 0 min 0 W/m 7,7 C 7,9 C 7,2 km/h (2 Bft)
13/12/2011 22:40 8,6 C 95 % 1008,2 hPa 0,0 mm 8,3 km/h (2 Bft) SO 225 0 min 0 W/m 7,8 C 7,3 C 12,2 km/h (2 Bft)
13/12/2011 22:45 8,5 C 94 % 1008,1 hPa 0,0 mm 10,1 km/h (2 Bft) S-SO 202 0 min 0 W/m 7,6 C 6,8 C 13,3 km/h (3 Bft)
13/12/2011 22:50 8,5 C 94 % 1008,0 hPa 0,0 mm 10,4 km/h (2 Bft) S 180 0 min 0 W/m 7,6 C 6,8 C 16,6 km/h (3 Bft)
13/12/2011 22:55 8,4 C 94 % 1008,1 hPa 0,0 mm 5,4 km/h (2 Bft) S-SO 202 0 min 0 W/m 7,5 C 7,8 C 9,0 km/h (2 Bft)
13/12/2011 23:00 8,4 C 94 % 1008,0 hPa 0,0 mm 6,8 km/h (2 Bft) S-SO 202 0 min 0 W/m 7,5 C 7,4 C 10,1 km/h (2 Bft)
13/12/2011 23:05 8,4 C 94 % 1008,0 hPa 0,0 mm 13,7 km/h (3 Bft) S 180 0 min 0 W/m 7,5 C 6,1 C 19,8 km/h (3 Bft)
_ Min-Heure 00:35 06:45 12:00 - 19:15 - - - - 06:45 01:50 19:15
Minimum _ 7,6 C 78 % 1007,3 hPa - 2,9 km/h (1 Bft) - - - - 5,5 C 4,6 C 2,9 km/h (1 Bft)
_ Max-Heure 14:10 22:40 00:10 06:25 11:55 - - 23:05 23:05 18:25 19:00 11:55
Maximum _ 9,7 C 95 % 1013,4 hPa 1,5 mm 26,6 km/h
S-SO (4 Bft)
- - 0 min 0 W/m 8,6 C 9,3 C 36,4 km/h
S-SO (5 Bft)
Moyenne _ 8,9 C 88 % 1008,9 hPa #3,9 mm 12,4 km/h (2 Bft) S-SO - #0 min. 0 W/m 7,0 C 7,1 C 17,1 km/h (3 Bft)
Saint Bonnet de Bellac- Haute Vienne - France